Grissom AFB, IN

4:33 AM EST on January 22, 2017 (GMT -0500)
Grissom Air Reserve Base

Weather History for KGUS - March, 2013

Change the Weather History Date:

Thursday, March 7, 2013

  Actual Average Record
Temperature  
Mean Temperature 32 °F -  
Max Temperature 36 °F 39 °F 71 °F (2009)
Min Temperature 25 °F 24 °F 10 °F (1999)
Degree Days  
Heating Degree Days 32    
Moisture  
Dew Point 28 °F    
Average Humidity 90    
Maximum Humidity 100    
Minimum Humidity 65    
Precipitation  
Precipitation 0.00 in - - ()
Sea Level Pressure  
Sea Level Pressure 30.33 in    
Wind  
Wind Speed 9 mph (WNW)    
Max Wind Speed 12 mph    
Max Gust Speed -    
Visibility 9 miles    
Events      
Averages and records for this station are not official NWS values.
T = Trace of Precipitation, MM = Missing Value Source: NWS Daily Summary

Daily Weather History Graph

Daily Weather History Graph

Search for Another Location

Airport or City:

Trip Planner

Search our weather history database for the weather conditions in past years. The results will help you decide how hot, cold, wet, or windy it might be!

Date:

Astronomy

Mar. 07, 2013 Rise Set
Actual Time 7:08 AM EST 6:42 PM EST
Civil Twilight 6:41 AM EST 7:10 PM EST
Nautical Twilight 6:09 AM EST 7:41 PM EST
Astronomical Twilight 5:38 AM EST 8:13 PM EST
Moon 4:09 AM EST (3/7) 2:29 PM EST (3/7)
Length of Visible Light 12h 28m
Length of Day
11h 34m
Waning Crescent, 20% of the Moon is Illuminated
Mar 7
Waning Crescent
Mar 11
New
Mar 19
First Quarter
Mar 27
Full
Apr 3
Last Quarter

Hourly Weather History & Observations

Time (EST) Temp. Windchill Dew Point Humidity Pressure Visibility Wind Dir Wind Speed Gust Speed Precip Events Conditions
12:11 AM 30.2 °F 21.3 °F 30.2 °F 100% 30.27 in 10.0 mi WNW 10.4 mph - N/A   Overcast
12:16 AM 30.2 °F 21.3 °F 30.2 °F 100% 30.27 in 10.0 mi WNW 10.4 mph - N/A   Overcast
12:36 AM 30.2 °F 21.3 °F 30.2 °F 100% 30.27 in 10.0 mi WNW 10.4 mph - N/A   Overcast
12:38 AM 30.2 °F 21.3 °F 30.2 °F 100% 30.27 in 10.0 mi WNW 10.4 mph - N/A   Overcast
12:43 AM 30.2 °F 21.9 °F 30.2 °F 100% 30.27 in 10.0 mi WNW 9.2 mph - N/A   Overcast
12:44 AM 30.2 °F 21.9 °F 30.2 °F 100% 30.27 in 10.0 mi WNW 9.2 mph - N/A   Overcast
12:49 AM 30.2 °F 21.3 °F 30.2 °F 100% 30.27 in 9.0 mi NW 10.4 mph - N/A   Overcast
12:55 AM 30.6 °F 21.2 °F 29.8 °F 97% 30.27 in 8.0 mi NW 11.5 mph - 0.00 in   Overcast
1:07 AM 30.2 °F 21.3 °F 30.2 °F 100% 30.27 in 9.0 mi WNW 10.4 mph - N/A   Overcast
1:31 AM 30.2 °F 21.9 °F 30.2 °F 100% 30.27 in 10.0 mi NW 9.2 mph - N/A   Overcast
1:48 AM 30.2 °F 22.6 °F 30.2 °F 100% 30.28 in 10.0 mi NW 8.1 mph - N/A   Overcast
1:55 AM 30.6 °F 23.1 °F 29.7 °F 96% 30.28 in 10.0 mi WNW 8.1 mph - 0.00 in   Overcast
2:24 AM 30.2 °F 22.6 °F 30.2 °F 100% 30.29 in 10.0 mi WNW 8.1 mph - N/A   Overcast
2:27 AM 30.2 °F 21.9 °F 30.2 °F 100% 30.29 in 10.0 mi WNW 9.2 mph - N/A   Overcast
2:55 AM 30.4 °F 22.9 °F 29.5 °F 96% 30.29 in 10.0 mi WNW 8.1 mph - N/A   Overcast
2:59 AM 30.2 °F 22.6 °F 28.4 °F 93% 30.29 in 10.0 mi WNW 8.1 mph - N/A   Overcast
3:00 AM 30.2 °F 22.6 °F 28.4 °F 93% 30.29 in 10.0 mi WNW 8.1 mph - N/A   Overcast
3:11 AM 30.2 °F 22.6 °F 30.2 °F 100% 30.29 in 10.0 mi WNW 8.1 mph - N/A   Overcast
3:15 AM 30.2 °F 22.6 °F 28.4 °F 93% 30.30 in 10.0 mi WNW 8.1 mph - N/A   Overcast
3:19 AM 30.2 °F 21.9 °F 28.4 °F 93% 30.29 in 10.0 mi WNW 9.2 mph - N/A   Overcast
3:21 AM 30.2 °F 22.6 °F 28.4 °F 93% 30.30 in 10.0 mi West 8.1 mph - N/A   Overcast
3:29 AM 30.2 °F 22.6 °F 28.4 °F 93% 30.30 in 10.0 mi West 8.1 mph - N/A   Overcast
3:53 AM 30.2 °F 22.6 °F 28.4 °F 93% 30.30 in 9.0 mi West 8.1 mph - N/A   Overcast
3:55 AM 29.7 °F 22.0 °F 28.9 °F 97% 30.30 in 9.0 mi West 8.1 mph - 0.00 in   Overcast
4:16 AM 30.2 °F 21.9 °F 28.4 °F 93% 30.31 in 9.0 mi WNW 9.2 mph - N/A   Overcast
4:18 AM 30.2 °F 21.9 °F 28.4 °F 93% 30.31 in 9.0 mi West 9.2 mph - N/A   Overcast
4:20 AM 30.2 °F 21.9 °F 28.4 °F 93% 30.31 in 9.0 mi WNW 9.2 mph - N/A   Overcast
4:38 AM 30.2 °F 21.9 °F 28.4 °F 93% 30.32 in 9.0 mi WNW 9.2 mph - N/A   Overcast
4:40 AM 30.2 °F 21.9 °F 28.4 °F 93% 30.32 in 9.0 mi WNW 9.2 mph - N/A   Overcast
4:43 AM 30.2 °F 21.9 °F 28.4 °F 93% 30.32 in 9.0 mi WNW 9.2 mph - N/A   Overcast
4:52 AM 30.2 °F 22.6 °F 28.4 °F 93% 30.32 in 9.0 mi WNW 8.1 mph - N/A   Overcast
4:55 AM 29.5 °F 21.8 °F 28.4 °F 96% 30.32 in 9.0 mi WNW 8.1 mph - N/A   Overcast
5:09 AM 30.2 °F 22.6 °F 28.4 °F 93% 30.32 in 9.0 mi WNW 8.1 mph - N/A   Overcast
5:13 AM 30.2 °F 22.6 °F 28.4 °F 93% 30.32 in 9.0 mi WNW 8.1 mph - N/A   Overcast
5:55 AM 30.0 °F 23.2 °F 28.6 °F 94% 30.33 in 10.0 mi NW 6.9 mph - N/A   Overcast
6:55 AM 29.8 °F 22.2 °F 28.6 °F 95% 30.40 in 6.0 mi WNW 8.1 mph - N/A   Overcast
7:55 AM 30.0 °F 23.2 °F 28.6 °F 94% 30.36 in 6.0 mi WNW 6.9 mph - N/A   Overcast
8:55 AM 30.2 °F 23.4 °F 28.9 °F 95% 30.38 in 6.0 mi WSW 6.9 mph - N/A   Overcast
9:55 AM 31.3 °F 26.6 °F 29.3 °F 92% 30.39 in 6.0 mi West 4.6 mph - N/A   Overcast
10:18 AM 32.0 °F 26.4 °F 28.4 °F 87% 30.39 in 10.0 mi West 5.8 mph - N/A   Overcast
10:29 AM 32.0 °F 27.5 °F 28.4 °F 87% 30.35 in 7.0 mi West 4.6 mph - N/A   Overcast
10:55 AM 33.4 °F 27.3 °F 29.1 °F 84% 30.38 in 10.0 mi WNW 6.9 mph - N/A   Overcast
11:55 AM 34.7 °F 28.8 °F 28.6 °F 78% 30.39 in 10.0 mi West 6.9 mph - N/A   Overcast
12:55 PM 34.7 °F 28.1 °F 29.5 °F 81% 30.39 in 10.0 mi West 8.1 mph - N/A   Overcast
1:00 PM 35.6 °F 29.9 °F 28.4 °F 75% 30.39 in 10.0 mi West 6.9 mph - N/A   Overcast
1:02 PM 35.6 °F 29.2 °F 28.4 °F 75% 30.35 in 10.0 mi West 8.1 mph - N/A   Overcast
1:55 PM 35.6 °F 29.2 °F 27.9 °F 73% 30.37 in 10.0 mi WNW 8.1 mph - N/A   Overcast
3:55 PM 36.0 °F 29.0 °F 26.4 °F 68% 30.39 in 10.0 mi WNW 9.2 mph - N/A   Overcast
4:55 PM 35.6 °F 30.7 °F 26.1 °F 68% 30.38 in 10.0 mi West 5.8 mph - N/A   Overcast
5:55 PM 35.1 °F 30.1 °F 25.9 °F 69% 30.39 in 10.0 mi NW 5.8 mph - N/A   Overcast
6:55 PM 34.5 °F 30.4 °F 23.7 °F 65% 30.40 in 10.0 mi NW 4.6 mph - N/A   Overcast
7:55 PM 34.3 °F 30.2 °F 23.5 °F 65% 30.41 in 10.0 mi NNW 4.6 mph - N/A   Overcast
8:55 PM 33.4 °F 30.4 °F 23.4 °F 67% 30.41 in 10.0 mi North 3.5 mph - N/A   Overcast
9:55 PM 32.4 °F 29.1 °F 23.0 °F 68% 30.41 in 10.0 mi North 3.5 mph - N/A   Scattered Clouds
10:55 PM 30.7 °F 27.3 °F 23.4 °F 74% 30.42 in 10.0 mi NW 3.5 mph - N/A   Clear
11:55 PM 25.9 °F - 23.4 °F 90% 30.43 in 10.0 mi Calm Calm - N/A   Clear